Time,TemperatureF,DewpointF,PressureIn,WindDirection,WindDirectionDegrees,WindSpeedMPH,WindSpeedGustMPH,Humidity,HourlyPrecipIn,Conditions,Clouds,dailyrainin,SolarRadiationWatts/m^2,SoftwareType,DateUTC
2013-08-08 00:02:00,92.0,60.0,-100.00,SSE,154,9.0,16.0,35,0.00,,,0.00,0.000000,,2013-08-08 05:02:00,
2013-08-08 00:33:00,89.0,59.0,-100.00,West,277,13.0,25.0,36,0.00,,,0.00,0.000000,,2013-08-08 05:33:00,
2013-08-08 00:43:00,89.0,59.0,-100.00,West,277,13.0,25.0,36,0.00,,,0.00,0.000000,,2013-08-08 05:43:00,
2013-08-08 00:52:00,89.0,59.0,-100.00,West,277,13.0,25.0,36,0.00,,,0.00,0.000000,,2013-08-08 05:52:00,
2013-08-08 01:01:00,89.0,59.0,-100.00,West,277,13.0,25.0,36,0.00,,,0.00,0.000000,,2013-08-08 06:01:00,
2013-08-08 01:32:00,85.0,62.0,-100.00,WNW,290,5.0,16.0,47,0.00,,,0.00,0.000000,,2013-08-08 06:32:00,
2013-08-08 01:43:00,85.0,62.0,-100.00,WNW,290,5.0,16.0,47,0.00,,,0.00,0.000000,,2013-08-08 06:43:00,
2013-08-08 01:52:00,85.0,62.0,-100.00,WNW,290,5.0,16.0,47,0.00,,,0.00,0.000000,,2013-08-08 06:52:00,
2013-08-08 02:01:00,85.0,62.0,-100.00,WNW,290,5.0,16.0,47,0.00,,,0.00,0.000000,,2013-08-08 07:01:00,
2013-08-08 02:32:00,82.0,63.0,-100.00,WSW,256,0.0,6.0,52,0.00,,,0.00,0.000000,,2013-08-08 07:32:00,
2013-08-08 02:43:00,82.0,63.0,-100.00,WSW,256,0.0,6.0,52,0.00,,,0.00,0.000000,,2013-08-08 07:43:00,
2013-08-08 02:53:00,82.0,63.0,-100.00,WSW,256,0.0,6.0,52,0.00,,,0.00,0.000000,,2013-08-08 07:53:00,
2013-08-08 03:02:00,82.0,63.0,-100.00,WSW,256,0.0,6.0,52,0.00,,,0.00,0.000000,,2013-08-08 08:02:00,
2013-08-08 03:32:00,80.0,63.0,-100.00,SSE,153,5.0,5.0,56,0.00,,,0.00,0.000000,,2013-08-08 08:32:00,
2013-08-08 03:43:00,80.0,63.0,-100.00,SSE,153,5.0,5.0,56,0.00,,,0.00,0.000000,,2013-08-08 08:43:00,
2013-08-08 03:53:00,80.0,63.0,-100.00,SSE,153,5.0,5.0,56,0.00,,,0.00,0.000000,,2013-08-08 08:53:00,
2013-08-08 04:01:00,80.0,63.0,-100.00,SSE,153,5.0,5.0,56,0.00,,,0.00,0.000000,,2013-08-08 09:01:00,
2013-08-08 04:32:00,79.0,63.0,-100.00,SSE,152,7.0,8.0,59,0.00,,,0.00,0.000000,,2013-08-08 09:32:00,
2013-08-08 04:43:00,79.0,63.0,-100.00,SSE,152,7.0,8.0,59,0.00,,,0.00,0.000000,,2013-08-08 09:43:00,
2013-08-08 04:53:00,79.0,63.0,-100.00,SSE,152,7.0,8.0,59,0.00,,,0.00,0.000000,,2013-08-08 09:53:00,
2013-08-08 05:01:00,79.0,63.0,-100.00,SSE,152,7.0,8.0,59,0.00,,,0.00,0.000000,,2013-08-08 10:01:00,
2013-08-08 05:33:00,81.0,63.0,-100.00,SSE,154,6.0,11.0,55,0.00,,,0.00,0.000000,,2013-08-08 10:33:00,
2013-08-08 05:43:00,81.0,63.0,-100.00,SSE,154,6.0,11.0,55,0.00,,,0.00,0.000000,,2013-08-08 10:43:00,
2013-08-08 05:52:00,81.0,63.0,-100.00,SSE,154,6.0,11.0,55,0.00,,,0.00,0.000000,,2013-08-08 10:52:00,
2013-08-08 06:02:00,81.0,63.0,-100.00,SSE,154,6.0,11.0,55,0.00,,,0.00,0.000000,,2013-08-08 11:02:00,
2013-08-08 06:32:00,80.0,64.0,-100.00,SSE,151,5.0,9.0,58,0.00,,,0.00,0.000000,,2013-08-08 11:32:00,
2013-08-08 06:43:00,80.0,64.0,-100.00,SSE,151,5.0,9.0,58,0.00,,,0.00,0.000000,,2013-08-08 11:43:00,
2013-08-08 06:52:00,80.0,64.0,-100.00,SSE,151,5.0,9.0,58,0.00,,,0.00,0.000000,,2013-08-08 11:52:00,
2013-08-08 07:01:00,80.0,64.0,-100.00,SSE,151,5.0,9.0,58,0.00,,,0.00,0.000000,,2013-08-08 12:01:00,
2013-08-08 07:32:00,80.0,64.0,-100.00,SSW,202,3.0,11.0,58,0.00,,,0.00,3.000000,,2013-08-08 12:32:00,
2013-08-08 07:43:00,80.0,64.0,-100.00,SSW,202,3.0,11.0,58,0.00,,,0.00,3.000000,,2013-08-08 12:43:00,
2013-08-08 07:53:00,80.0,64.0,-100.00,SSW,202,3.0,11.0,58,0.00,,,0.00,3.000000,,2013-08-08 12:53:00,
2013-08-08 08:01:00,80.0,64.0,-100.00,SSW,202,3.0,11.0,58,0.00,,,0.00,3.000000,,2013-08-08 13:01:00,
2013-08-08 08:32:00,80.0,65.0,-100.00,NNW,342,5.0,6.0,61,0.00,,,0.00,31.000000,,2013-08-08 13:32:00,
2013-08-08 08:43:00,80.0,65.0,-100.00,NNW,342,5.0,6.0,61,0.00,,,0.00,31.000000,,2013-08-08 13:43:00,
2013-08-08 08:53:00,80.0,65.0,-100.00,NNW,342,5.0,6.0,61,0.00,,,0.00,31.000000,,2013-08-08 13:53:00,
2013-08-08 09:02:00,80.0,65.0,-100.00,NNW,342,5.0,6.0,61,0.00,,,0.00,31.000000,,2013-08-08 14:02:00,
2013-08-08 09:32:00,81.0,68.0,-100.00,NE,46,3.0,6.0,64,0.00,,,0.00,63.000000,,2013-08-08 14:32:00,
2013-08-08 09:43:00,81.0,68.0,-100.00,NE,46,3.0,6.0,64,0.00,,,0.00,63.000000,,2013-08-08 14:43:00,
2013-08-08 09:53:00,81.0,68.0,-100.00,NE,46,3.0,6.0,64,0.00,,,0.00,63.000000,,2013-08-08 14:53:00,
2013-08-08 10:02:00,81.0,68.0,-100.00,NE,46,3.0,6.0,64,0.00,,,0.00,63.000000,,2013-08-08 15:02:00,
2013-08-08 10:33:00,85.0,68.0,-100.00,East,99,7.0,11.0,56,0.00,,,0.00,338.000000,,2013-08-08 15:33:00,
2013-08-08 10:43:00,85.0,68.0,-100.00,East,99,7.0,11.0,56,0.00,,,0.00,338.000000,,2013-08-08 15:43:00,
2013-08-08 10:53:00,85.0,68.0,-100.00,East,99,7.0,11.0,56,0.00,,,0.00,338.000000,,2013-08-08 15:53:00,
2013-08-08 11:02:00,85.0,68.0,-100.00,East,99,7.0,11.0,56,0.00,,,0.00,338.000000,,2013-08-08 16:02:00,
2013-08-08 11:32:00,89.0,70.0,-100.00,East,80,7.0,11.0,54,0.00,,,0.00,491.000000,,2013-08-08 16:32:00,
2013-08-08 11:42:00,89.0,70.0,-100.00,East,80,7.0,11.0,54,0.00,,,0.00,491.000000,,2013-08-08 16:42:00,
2013-08-08 11:52:00,89.0,70.0,-100.00,East,80,7.0,11.0,54,0.00,,,0.00,491.000000,,2013-08-08 16:52:00,
2013-08-08 12:02:00,89.0,70.0,-100.00,East,80,7.0,11.0,54,0.00,,,0.00,491.000000,,2013-08-08 17:02:00,
2013-08-08 12:32:00,91.0,70.0,-100.00,East,95,9.0,14.0,51,0.00,,,0.00,868.000000,,2013-08-08 17:32:00,
2013-08-08 12:43:00,91.0,70.0,-100.00,East,95,9.0,14.0,51,0.00,,,0.00,868.000000,,2013-08-08 17:43:00,
2013-08-08 12:52:00,91.0,70.0,-100.00,East,95,9.0,14.0,51,0.00,,,0.00,868.000000,,2013-08-08 17:52:00,
2013-08-08 13:01:00,91.0,70.0,-100.00,East,95,9.0,14.0,51,0.00,,,0.00,868.000000,,2013-08-08 18:01:00,
2013-08-08 13:32:00,95.0,68.0,-100.00,SSE,152,12.0,20.0,42,0.00,,,0.00,968.000000,,2013-08-08 18:32:00,
2013-08-08 13:43:00,95.0,68.0,-100.00,SSE,152,12.0,20.0,42,0.00,,,0.00,968.000000,,2013-08-08 18:43:00,
2013-08-08 13:53:00,95.0,68.0,-100.00,SSE,152,12.0,20.0,42,0.00,,,0.00,968.000000,,2013-08-08 18:53:00,
2013-08-08 14:01:00,95.0,68.0,-100.00,SSE,152,12.0,20.0,42,0.00,,,0.00,968.000000,,2013-08-08 19:01:00,
2013-08-08 14:32:00,97.0,67.0,-100.00,South,171,12.0,21.0,38,0.00,,,0.00,896.000000,,2013-08-08 19:32:00,
2013-08-08 14:43:00,97.0,67.0,-100.00,South,171,12.0,21.0,38,0.00,,,0.00,896.000000,,2013-08-08 19:43:00,
2013-08-08 14:58:00,97.0,67.0,-100.00,South,171,12.0,21.0,38,0.00,,,0.00,896.000000,,2013-08-08 19:58:00,
2013-08-08 15:32:00,98.0,61.0,-100.00,SSE,156,13.0,19.0,30,0.00,,,0.00,930.000000,,2013-08-08 20:32:00,
2013-08-08 15:42:00,98.0,61.0,-100.00,SSE,156,13.0,19.0,30,0.00,,,0.00,930.000000,,2013-08-08 20:42:00,
2013-08-08 15:52:00,98.0,61.0,-100.00,SSE,156,13.0,19.0,30,0.00,,,0.00,930.000000,,2013-08-08 20:52:00,
2013-08-08 16:01:00,98.0,61.0,-100.00,SSE,156,13.0,19.0,30,0.00,,,0.00,930.000000,,2013-08-08 21:01:00,
2013-08-08 16:34:00,100.0,64.0,-100.00,SSE,165,12.0,19.0,31,0.00,,,0.00,918.000000,,2013-08-08 21:34:00,
2013-08-08 16:46:00,100.0,64.0,-100.00,SSE,165,12.0,19.0,31,0.00,,,0.00,918.000000,,2013-08-08 21:46:00,
2013-08-08 16:57:00,100.0,64.0,-100.00,SSE,165,12.0,19.0,31,0.00,,,0.00,918.000000,,2013-08-08 21:57:00,
2013-08-08 17:04:00,100.0,64.0,-100.00,SSE,165,12.0,19.0,31,0.00,,,0.00,918.000000,,2013-08-08 22:04:00,
2013-08-08 17:37:00,101.0,60.0,-100.00,South,173,11.0,19.0,26,0.00,,,0.00,747.000000,,2013-08-08 22:37:00,
2013-08-08 17:49:00,101.0,60.0,-100.00,South,173,11.0,19.0,26,0.00,,,0.00,747.000000,,2013-08-08 22:49:00,
2013-08-08 18:04:00,101.0,60.0,-100.00,South,173,11.0,19.0,26,0.00,,,0.00,747.000000,,2013-08-08 23:04:00,
2013-08-08 18:37:00,98.0,59.0,-100.00,SSE,163,9.0,18.0,28,0.00,,,0.00,452.000000,,2013-08-08 23:37:00,
2013-08-08 18:49:00,98.0,59.0,-100.00,SSE,163,9.0,18.0,28,0.00,,,0.00,452.000000,,2013-08-08 23:49:00,
2013-08-08 18:57:00,98.0,59.0,-100.00,SSE,163,9.0,18.0,28,0.00,,,0.00,452.000000,,2013-08-08 23:57:00,
2013-08-08 19:04:00,98.0,59.0,-100.00,SSE,163,9.0,18.0,28,0.00,,,0.00,452.000000,,2013-08-09 00:04:00,
2013-08-08 19:35:00,96.0,62.0,-100.00,SE,138,7.0,14.0,33,0.00,,,0.00,145.000000,,2013-08-09 00:35:00,
2013-08-08 19:48:00,96.0,62.0,-100.00,SE,138,7.0,14.0,33,0.00,,,0.00,145.000000,,2013-08-09 00:48:00,
2013-08-08 20:02:00,96.0,62.0,-100.00,SE,138,7.0,14.0,33,0.00,,,0.00,145.000000,,2013-08-09 01:02:00,
2013-08-08 21:05:00,82.0,65.0,-100.00,WNW,295,14.0,25.0,57,0.00,,,0.00,1.000000,,2013-08-09 02:05:00,
2013-08-08 21:39:00,82.0,65.0,-100.00,WNW,295,14.0,25.0,57,0.00,,,0.00,1.000000,,2013-08-09 02:39:00,
2013-08-08 21:47:00,82.0,65.0,-100.00,WNW,295,14.0,25.0,57,0.00,,,0.00,1.000000,,2013-08-09 02:47:00,
2013-08-08 21:57:00,82.0,65.0,-100.00,WNW,295,14.0,25.0,57,0.00,,,0.00,1.000000,,2013-08-09 02:57:00,
2013-08-08 22:35:00,83.0,62.0,-100.00,East,98,5.0,21.0,49,0.00,,,0.00,0.000000,,2013-08-09 03:35:00,
2013-08-08 22:47:00,83.0,62.0,-100.00,East,98,5.0,21.0,49,0.00,,,0.00,0.000000,,2013-08-09 03:47:00,
2013-08-08 22:56:00,83.0,62.0,-100.00,East,98,5.0,21.0,49,0.00,,,0.00,0.000000,,2013-08-09 03:56:00,
2013-08-08 23:01:00,83.0,62.0,-100.00,East,98,5.0,21.0,49,0.00,,,0.00,0.000000,,2013-08-09 04:01:00,
2013-08-08 23:33:00,82.0,64.0,-100.00,SE,142,7.0,10.0,54,0.00,,,0.00,0.000000,,2013-08-09 04:33:00,
2013-08-08 23:43:00,82.0,64.0,-100.00,SE,142,7.0,10.0,54,0.00,,,0.00,0.000000,,2013-08-09 04:43:00,
2013-08-08 23:53:00,82.0,64.0,-100.00,SE,142,7.0,10.0,54,0.00,,,0.00,0.000000,,2013-08-09 04:53:00,